When you browse on this site, cookies collect data to enhance your experience and personalize the content and advertising you see.
Visit our Privacy Policy to learn more. By continuing to use the site, you agree to this use of cookies and data.
  • In Deutschland
  • Länderverzeichnis
  • Für 7 Tage
  • Wassertemperatur
  • Satellitenkarten
  • Wetterkarte
  • Widgets
  • user-avatar
    Anmelden

    Stündliche Wetter Kalgoorlie

    Heute, 20 März, Mittwoch

    Zeit Temperatur Niederschläge Wind Luftdruck Luftfeuchtigkeit
    00:00 +30°C° 0 mm 6 m/S 727 mmHg 37%
    01:00 +29°C° 0 mm 6 m/S 727 mmHg 38%
    02:00 +28°C° 0 mm 6 m/S 727 mmHg 42%
    03:00 +28°C° 0 mm 6 m/S 728 mmHg 43%
    04:00 +28°C° 0 mm 5 m/S 728 mmHg 44%
    05:00 +27°C° 0 mm 5 m/S 728 mmHg 45%
    06:00 +28°C° 0 mm 5 m/S 728 mmHg 43%
    07:00 +29°C° 0 mm 5 m/S 728 mmHg 40%
    08:00 +29°C° 0 mm 5 m/S 729 mmHg 38%
    09:00 +32°C° 0 mm 6 m/S 729 mmHg 33%
    10:00 +34°C° 0 mm 6 m/S 729 mmHg 29%
    11:00 +36°C° 0 mm 6 m/S 729 mmHg 24%
    12:00 +37°C° 0 mm 5 m/S 728 mmHg 23%
    13:00 +37°C° 0 mm 4 m/S 727 mmHg 22%
    14:00 +38°C° 0 mm 3 m/S 727 mmHg 21%
    15:00 +38°C° 0 mm 3 m/S 727 mmHg 21%
    16:00 +37°C° 0 mm 3 m/S 727 mmHg 21%
    17:00 +37°C° 0 mm 3 m/S 727 mmHg 21%
    18:00 +37°C° 0 mm 3 m/S 727 mmHg 22%
    19:00 +36°C° 0 mm 3 m/S 727 mmHg 24%
    20:00 +36°C° 0 mm 3 m/S 728 mmHg 26%
    21:00 +35°C° 0 mm 4 m/S 728 mmHg 28%
    22:00 +34°C° 0 mm 5 m/S 727 mmHg 30%
    23:00 +34°C° 0 mm 7 m/S 727 mmHg 32%

    Morgen, 21 März, Donnerstag

    Zeit Temperatur Niederschläge Wind Luftdruck Luftfeuchtigkeit
    00:00 +33°C° 0 mm 7 m/S 727 mmHg 32%
    01:00 +32°C° 0 mm 7 m/S 727 mmHg 33%
    02:00 +31°C° 0 mm 8 m/S 727 mmHg 34%
    03:00 +29°C° 0.3 mm 8 m/S 727 mmHg 39%
    04:00 +28°C° 0.3 mm 8 m/S 727 mmHg 44%
    05:00 +27°C° 0.3 mm 8 m/S 727 mmHg 49%
    06:00 +27°C° 0.4 mm 8 m/S 727 mmHg 49%
    07:00 +28°C° 0.4 mm 8 m/S 728 mmHg 48%
    08:00 +28°C° 0.4 mm 8 m/S 728 mmHg 48%
    09:00 +28°C° 1.5 mm 7 m/S 728 mmHg 48%
    10:00 +29°C° 1.5 mm 7 m/S 728 mmHg 48%
    11:00 +30°C° 1.5 mm 6 m/S 728 mmHg 48%
    12:00 +29°C° 0.5 mm 5 m/S 728 mmHg 51%
    13:00 +28°C° 0.5 mm 5 m/S 728 mmHg 55%
    14:00 +28°C° 0.5 mm 4 m/S 728 mmHg 59%
    15:00 +27°C° 0 mm 4 m/S 727 mmHg 59%
    16:00 +27°C° 0 mm 4 m/S 727 mmHg 60%
    17:00 +27°C° 0 mm 4 m/S 727 mmHg 60%
    18:00 +27°C° 0 mm 3 m/S 727 mmHg 62%
    19:00 +26°C° 0 mm 2 m/S 727 mmHg 64%
    20:00 +26°C° 0 mm 1 m/S 727 mmHg 65%
    21:00 +26°C° 0 mm 2 m/S 727 mmHg 65%
    22:00 +26°C° 0 mm 3 m/S 727 mmHg 65%
    23:00 +26°C° 0 mm 4 m/S 727 mmHg 65%

    übermorgen, 22 März, Freitag

    Zeit Temperatur Niederschläge Wind Luftdruck Luftfeuchtigkeit
    00:00 +25°C° 0 mm 3 m/S 727 mmHg 65%
    01:00 +25°C° 0 mm 3 m/S 726 mmHg 65%
    02:00 +25°C° 0 mm 3 m/S 726 mmHg 64%
    03:00 +25°C° 0 mm 3 m/S 726 mmHg 64%
    04:00 +24°C° 0 mm 3 m/S 726 mmHg 63%
    05:00 +24°C° 0 mm 3 m/S 726 mmHg 62%
    06:00 +25°C° 0 mm 3 m/S 726 mmHg 58%
    07:00 +26°C° 0 mm 3 m/S 727 mmHg 54%
    08:00 +27°C° 0 mm 3 m/S 727 mmHg 50%
    09:00 +29°C° 0 mm 3 m/S 727 mmHg 46%
    10:00 +31°C° 0 mm 3 m/S 727 mmHg 41%
    11:00 +33°C° 0 mm 3 m/S 727 mmHg 36%
    12:00 +34°C° 0 mm 4 m/S 726 mmHg 34%
    13:00 +35°C° 0 mm 4 m/S 726 mmHg 31%
    14:00 +36°C° 0 mm 4 m/S 725 mmHg 29%
    15:00 +35°C° 0.2 mm 4 m/S 725 mmHg 32%
    16:00 +34°C° 0.2 mm 4 m/S 725 mmHg 35%
    17:00 +33°C° 0.2 mm 4 m/S 725 mmHg 38%
    18:00 +32°C° 0.1 mm 5 m/S 725 mmHg 43%
    19:00 +30°C° 0.1 mm 6 m/S 726 mmHg 49%
    20:00 +29°C° 0.1 mm 6 m/S 727 mmHg 54%
    21:00 +27°C° 0.4 mm 7 m/S 727 mmHg 62%
    22:00 +24°C° 0.4 mm 8 m/S 728 mmHg 70%
    23:00 +22°C° 0.4 mm 9 m/S 728 mmHg 77%

    23 März, Samstag

    Zeit Temperatur Niederschläge Wind Luftdruck Luftfeuchtigkeit
    00:00 +22°C° 1.4 mm 9 m/S 728 mmHg 77%
    01:00 +21°C° 1.4 mm 9 m/S 728 mmHg 78%
    02:00 +21°C° 1.4 mm 9 m/S 728 mmHg 78%
    03:00 +21°C° 0.1 mm 9 m/S 728 mmHg 78%
    04:00 +19°C° 0.1 mm 9 m/S 728 mmHg 78%
    05:00 +19°C° 0.1 mm 9 m/S 728 mmHg 78%
    06:00 +18°C° 0 mm 9 m/S 728 mmHg 77%
    07:00 +18°C° 0 mm 8 m/S 729 mmHg 77%
    08:00 +18°C° 0 mm 8 m/S 729 mmHg 76%
    09:00 +18°C° 0 mm 8 m/S 730 mmHg 74%
    10:00 +18°C° 0 mm 7 m/S 730 mmHg 73%
    11:00 +18°C° 0 mm 7 m/S 730 mmHg 71%
    12:00 +20°C° 0 mm 7 m/S 729 mmHg 68%
    13:00 +20°C° 0 mm 7 m/S 729 mmHg 65%
    14:00 +21°C° 0 mm 7 m/S 728 mmHg 62%
    15:00 +21°C° 0 mm 6 m/S 728 mmHg 60%
    16:00 +22°C° 0 mm 6 m/S 728 mmHg 59%
    17:00 +22°C° 0 mm 5 m/S 728 mmHg 58%
    18:00 +22°C° 0 mm 5 m/S 729 mmHg 59%
    19:00 +21°C° 0 mm 4 m/S 729 mmHg 60%
    20:00 +21°C° 0 mm 4 m/S 729 mmHg 61%
    21:00 +21°C° 0 mm 4 m/S 729 mmHg 61%
    22:00 +20°C° 0 mm 4 m/S 729 mmHg 62%
    23:00 +19°C° 0 mm 5 m/S 729 mmHg 62%

    24 März, Sonntag

    Zeit Temperatur Niederschläge Wind Luftdruck Luftfeuchtigkeit
    00:00 +19°C° 0 mm 5 m/S 729 mmHg 64%
    01:00 +17°C° 0 mm 5 m/S 729 mmHg 66%
    02:00 +16°C° 0 mm 5 m/S 729 mmHg 68%
    03:00 +17°C° 0 mm 4 m/S 729 mmHg 69%
    04:00 +15°C° 0 mm 4 m/S 729 mmHg 71%
    05:00 +15°C° 0 mm 4 m/S 729 mmHg 73%
    06:00 +15°C° 0 mm 4 m/S 729 mmHg 71%
    07:00 +15°C° 0 mm 4 m/S 730 mmHg 70%
    08:00 +17°C° 0 mm 4 m/S 730 mmHg 68%
    09:00 +18°C° 0 mm 4 m/S 730 mmHg 61%
    10:00 +20°C° 0 mm 4 m/S 730 mmHg 53%
    11:00 +21°C° 0 mm 5 m/S 730 mmHg 46%
    12:00 +23°C° 0 mm 5 m/S 729 mmHg 39%
    13:00 +25°C° 0 mm 5 m/S 729 mmHg 32%
    14:00 +26°C° 0 mm 5 m/S 728 mmHg 25%
    15:00 +26°C° 0 mm 6 m/S 728 mmHg 26%
    16:00 +26°C° 0 mm 6 m/S 728 mmHg 27%
    17:00 +26°C° 0 mm 7 m/S 729 mmHg 28%
    18:00 +23°C° 0 mm 8 m/S 729 mmHg 35%
    19:00 +22°C° 0 mm 8 m/S 730 mmHg 42%
    20:00 +21°C° 0 mm 9 m/S 731 mmHg 49%
    21:00 +19°C° 0 mm 9 m/S 731 mmHg 54%
    22:00 +17°C° 0 mm 9 m/S 731 mmHg 59%
    23:00 +16°C° 0 mm 9 m/S 732 mmHg 63%

    25 März, Montag

    Zeit Temperatur Niederschläge Wind Luftdruck Luftfeuchtigkeit
    00:00 +15°C° 0 mm 9 m/S 732 mmHg 65%
    01:00 +13°C° 0 mm 8 m/S 732 mmHg 66%
    02:00 +13°C° 0 mm 8 m/S 732 mmHg 67%
    03:00 +12°C° 0 mm 8 m/S 732 mmHg 67%
    04:00 +12°C° 0 mm 8 m/S 733 mmHg 67%
    05:00 +11°C° 0 mm 8 m/S 733 mmHg 68%
    06:00 +11°C° 0 mm 8 m/S 734 mmHg 67%
    07:00 +12°C° 0 mm 8 m/S 734 mmHg 66%
    08:00 +12°C° 0 mm 8 m/S 735 mmHg 65%
    09:00 +15°C° 0 mm 8 m/S 734 mmHg 57%
    10:00 +17°C° 0 mm 8 m/S 734 mmHg 49%
    11:00 +20°C° 0 mm 8 m/S 734 mmHg 41%
    12:00 +21°C° 0 mm 8 m/S 734 mmHg 38%
    13:00 +22°C° 0 mm 8 m/S 733 mmHg 34%
    14:00 +24°C° 0 mm 8 m/S 732 mmHg 30%
    15:00 +24°C° 0 mm 8 m/S 733 mmHg 30%
    16:00 +24°C° 0 mm 8 m/S 733 mmHg 31%
    17:00 +24°C° 0 mm 8 m/S 733 mmHg 31%
    18:00 +23°C° 0 mm 8 m/S 733 mmHg 34%
    19:00 +21°C° 0 mm 8 m/S 734 mmHg 37%
    20:00 +20°C° 0 mm 8 m/S 734 mmHg 40%
    21:00 +18°C° 0 mm 9 m/S 735 mmHg 45%
    22:00 +17°C° 0 mm 9 m/S 735 mmHg 51%
    23:00 +16°C° 0 mm 9 m/S 735 mmHg 56%
    Mehr zeigen